Location: Recife
(8.0585°S, 34.8848°W)
Time: 20:49:56
(UTC-03:00)

S-56A Canister/Altair - Pass Details

Date: 15 April 2026
Orbit: 633 x 2484 km, 38.9° (Epoch: 16 May)

Event Time Altitude Azimuth Distance (km) Brightness Sun altitude
Rises 00:19:47 0° 226° (SW) 3,238 - -75.1°
Reaches altitude 10° 00:21:54 10° 224° (SW) 2,447 - -74.5°
Maximum altitude 00:27:38 75° 139° (SE) 1,100 - -73.1°
Drops below altitude 10° 00:36:18 10° 54° (NE) 3,617 - -71.0°
Exits shadow 00:39:10 - 53° (NE) 4,603 11.7 -70.3°
Sets 00:40:03 0° 52° (NE) 4,904 11.9 -70.1°
